This is the latest recevied weather packets stored in our database for station/object KP4CRN. If no packets are shown the sender has not sent any weather packets the latest 10 day(s).
| Time | Temp. | Humidity | Pressure | Rain* | Wind** | Luminosity | Snow |
|---|---|---|---|---|---|---|---|
| 1777923376 | 31.67° C | 69% | 1014.3 hPa | 0 mm | - | 492 W/m² | - |
| 1777923075 | 31.67° C | 69% | 1014.3 hPa | 0 mm | - | 512 W/m² | - |
| 1777922772 | 31.67° C | 69% | 1014.5 hPa | 0 mm | - | 524 W/m² | - |
| 1777922470 | 31.67° C | 70% | 1014.5 hPa | 0 mm | - | 540 W/m² | - |
| 1777922169 | 32.22° C | 68% | 1014.6 hPa | 0 mm | - | 552 W/m² | - |
| 1777921864 | 32.22° C | 68% | 1014.6 hPa | 0 mm | - | 575 W/m² | - |
| 1777921561 | 32.78° C | 66% | 1014.5 hPa | 0 mm | - | 508 W/m² | - |
| 1777921256 | 32.78° C | 65% | 1014.5 hPa | 0 mm | - | 611 W/m² | - |
| 1777920954 | 32.78° C | 65% | 1014.4 hPa | 0 mm | - | 627 W/m² | - |
| 1777920650 | 32.22° C | 65% | 1014.7 hPa | 0 mm | - | 635 W/m² | - |
| 1777920346 | 32.22° C | 66% | 1014.8 hPa | 0 mm | - | 646 W/m² | - |
| 1777920041 | 32.78° C | 66% | 1015 hPa | 0 mm | - | 662 W/m² | - |
| 1777919738 | 32.78° C | 65% | 1015.1 hPa | 0 mm | - | 708 W/m² | - |
| 1777919437 | 32.78° C | 64% | 1014.8 hPa | 0 mm | - | 738 W/m² | - |
| 1777919133 | 32.78° C | 64% | 1015.1 hPa | 0 mm | - | 695 W/m² | - |
| 1777918831 | 32.78° C | 65% | 1015 hPa | 0 mm | - | 713 W/m² | - |
| 1777918527 | 32.78° C | 64% | 1015.2 hPa | 0 mm | - | 772 W/m² | - |
| 1777918226 | 32.22° C | 65% | 1014.9 hPa | 0 mm | - | 606 W/m² | - |
| 1777917924 | 32.78° C | 65% | 1015.1 hPa | 0 mm | - | 313 W/m² | - |
| 1777917623 | 33.33° C | 63% | 1015.1 hPa | 0 mm | - | 155 W/m² | - |
| 1777917320 | 32.78° C | 63% | 1015.2 hPa | 0 mm | - | 665 W/m² | - |
| 1777917017 | 32.22° C | 64% | 1015.4 hPa | 0 mm | - | 361 W/m² | - |
| 1777916715 | 32.22° C | 63% | 1015.5 hPa | 0 mm | - | 116 W/m² | - |
| 1777916411 | 32.78° C | 62% | 1015.4 hPa | 0 mm | - | 176 W/m² | - |
| 1777916108 | 32.22° C | 61% | 1015.5 hPa | 0 mm | - | 108 W/m² | - |
* Rain latest hour (hover to see other rain measurements)
** Current wind speed in m/s (hover to see current wind gust speed)